"datetime","temp","dp","rain_mm","uv","mb"
"2018-07-01 00:00:00",16.3,9.7,0.0,0.0,1012.9
"2018-07-01 00:01:00",16.3,9.7,0.0,0.0,1012.9
"2018-07-01 00:02:00",16.3,9.9,0.0,0.0,1012.9
"2018-07-01 00:03:00",16.3,9.9,0.0,0.0,1012.9
"2018-07-01 00:04:00",16.3,9.9,0.0,0.0,1012.9
"2018-07-01 00:05:00",16.3,9.9,0.0,0.0,1013.0
"2018-07-01 00:06:00",16.3,9.7,0.0,0.0,1013.0
"2018-07-01 00:07:00",16.2,9.6,0.0,0.0,1013.0
"2018-07-01 00:08:00",16.2,9.8,0.0,0.0,1012.9
"2018-07-01 00:09:00",16.2,9.8,0.0,0.0,1013.0
"2018-07-01 00:10:00",16.2,9.8,0.0,0.0,1013.0
"2018-07-01 00:11:00",16.2,9.8,0.0,0.0,1013.0
"2018-07-01 00:12:00",16.2,9.8,0.0,0.0,1013.0
"2018-07-01 00:13:00",16.2,9.8,0.0,0.0,1013.0
"2018-07-01 00:14:00",16.2,10.1,0.0,0.0,1013.0
"2018-07-01 00:15:00",16.2,9.8,0.0,0.0,1012.9
"2018-07-01 00:16:00",16.2,9.8,0.0,0.0,1012.9
"2018-07-01 00:17:00",16.2,9.8,0.0,0.0,1012.9
"2018-07-01 00:18:00",16.2,9.8,0.0,0.0,1012.9
"2018-07-01 00:19:00",16.2,9.8,0.0,0.0,1013.0
"2018-07-01 00:20:00",16.1,9.7,0.0,0.0,1012.9
"2018-07-01 00:21:00",16.0,9.4,0.0,0.0,1012.9
"2018-07-01 00:22:00",16.0,9.7,0.0,0.0,1012.9
"2018-07-01 00:23:00",16.0,9.9,0.0,0.0,1012.9
"2018-07-01 00:24:00",15.9,9.8,0.0,0.0,1012.9
"2018-07-01 00:25:00",15.9,9.8,0.0,0.0,1012.9
"2018-07-01 00:26:00",15.8,9.7,0.0,0.0,1012.9
"2018-07-01 00:27:00",15.8,9.9,0.0,0.0,1012.8
"2018-07-01 00:28:00",15.8,9.9,0.0,0.0,1012.8
"2018-07-01 00:29:00",15.7,9.8,0.0,0.0,1012.8
"2018-07-01 00:30:00",15.6,9.7,0.0,0.0,1012.8
"2018-07-01 00:31:00",15.5,9.8,0.0,0.0,1012.8
"2018-07-01 00:32:00",15.4,9.7,0.0,0.0,1012.8
"2018-07-01 00:33:00",15.3,9.6,0.0,0.0,1012.8
"2018-07-01 00:34:00",15.3,9.9,0.0,0.0,1012.8
"2018-07-01 00:35:00",15.2,9.5,0.0,0.0,1012.8
"2018-07-01 00:36:00",15.2,9.5,0.0,0.0,1012.8
"2018-07-01 00:37:00",15.1,9.7,0.0,0.0,1012.8
"2018-07-01 00:38:00",15.1,9.7,0.0,0.0,1012.8
"2018-07-01 00:39:00",15.0,9.6,0.0,0.0,1012.8
"2018-07-01 00:40:00",14.9,9.5,0.0,0.0,1012.8
"2018-07-01 00:41:00",14.9,9.5,0.0,0.0,1012.8
"2018-07-01 00:42:00",14.9,9.5,0.0,0.0,1012.9
"2018-07-01 00:43:00",14.9,9.5,0.0,0.0,1012.8
"2018-07-01 00:44:00",14.8,9.6,0.0,0.0,1012.9
"2018-07-01 00:45:00",14.8,9.6,0.0,0.0,1012.9
"2018-07-01 00:46:00",14.8,9.6,0.0,0.0,1012.9
"2018-07-01 00:47:00",14.7,9.5,0.0,0.0,1012.8
"2018-07-01 00:48:00",14.7,9.5,0.0,0.0,1012.8
"2018-07-01 00:49:00",14.7,9.7,0.0,0.0,1012.9
"2018-07-01 00:50:00",14.7,9.7,0.0,0.0,1012.9
"2018-07-01 00:51:00",14.6,9.6,0.0,0.0,1012.8
"2018-07-01 00:52:00",14.6,9.6,0.0,0.0,1012.8
"2018-07-01 00:53:00",14.6,9.6,0.0,0.0,1012.9
"2018-07-01 00:54:00",14.5,9.7,0.0,0.0,1012.9
"2018-07-01 00:55:00",14.4,9.6,0.0,0.0,1012.9
"2018-07-01 00:56:00",14.4,9.6,0.0,0.0,1012.8
"2018-07-01 00:57:00",14.4,9.8,0.0,0.0,1012.8
"2018-07-01 00:58:00",14.3,9.5,0.0,0.0,1012.8
"2018-07-01 00:59:00",14.3,9.7,0.0,0.0,1012.9
"2018-07-01 01:00:00",14.3,9.5,0.0,0.0,1012.9
"2018-07-01 01:01:00",14.2,9.4,0.0,0.0,1012.8
"2018-07-01 01:02:00",14.2,9.4,0.0,0.0,1012.9
"2018-07-01 01:03:00",14.2,9.4,0.0,0.0,1012.9
"2018-07-01 01:04:00",14.1,9.5,0.0,0.0,1012.8
"2018-07-01 01:05:00",14.1,9.5,0.0,0.0,1012.8
"2018-07-01 01:06:00",14.1,9.5,0.0,0.0,1012.8
"2018-07-01 01:07:00",14.0,9.4,0.0,0.0,1012.8
"2018-07-01 01:08:00",13.9,9.3,0.0,0.0,1012.9
"2018-07-01 01:09:00",13.9,9.3,0.0,0.0,1012.8
"2018-07-01 01:10:00",13.9,9.5,0.0,0.0,1012.8
"2018-07-01 01:11:00",13.9,9.5,0.0,0.0,1012.8
"2018-07-01 01:12:00",13.9,9.5,0.0,0.0,1012.8
"2018-07-01 01:13:00",13.8,9.4,0.0,0.0,1012.8
"2018-07-01 01:14:00",13.8,9.4,0.0,0.0,1012.8
"2018-07-01 01:15:00",13.7,9.5,0.0,0.0,1012.8
"2018-07-01 01:16:00",13.7,9.5,0.0,0.0,1012.8
"2018-07-01 01:17:00",13.7,9.5,0.0,0.0,1012.8
"2018-07-01 01:18:00",13.7,9.5,0.0,0.0,1012.8
"2018-07-01 01:19:00",13.7,9.5,0.0,0.0,1012.8
"2018-07-01 01:20:00",13.7,9.5,0.0,0.0,1012.7
"2018-07-01 01:21:00",13.6,9.4,0.0,0.0,1012.7
"2018-07-01 01:22:00",13.6,9.4,0.0,0.0,1012.7
"2018-07-01 01:23:00",13.6,9.4,0.0,0.0,1012.7
"2018-07-01 01:24:00",13.6,9.4,0.0,0.0,1012.7
"2018-07-01 01:25:00",13.5,9.4,0.0,0.0,1012.7
"2018-07-01 01:26:00",13.5,9.5,0.0,0.0,1012.7
"2018-07-01 01:27:00",13.4,9.4,0.0,0.0,1012.7
"2018-07-01 01:28:00",13.4,9.4,0.0,0.0,1012.7
"2018-07-01 01:29:00",13.4,9.4,0.0,0.0,1012.7
"2018-07-01 01:30:00",13.4,9.4,0.0,0.0,1012.7
"2018-07-01 01:31:00",13.4,9.4,0.0,0.0,1012.7
"2018-07-01 01:32:00",13.3,9.4,0.0,0.0,1012.6
"2018-07-01 01:33:00",13.3,9.4,0.0,0.0,1012.7
"2018-07-01 01:34:00",13.3,9.4,0.0,0.0,1012.6
"2018-07-01 01:35:00",13.3,9.5,0.0,0.0,1012.6
"2018-07-01 01:36:00",13.3,9.5,0.0,0.0,1012.6
"2018-07-01 01:37:00",13.2,9.4,0.0,0.0,1012.6
"2018-07-01 01:38:00",13.2,9.4,0.0,0.0,1012.6
"2018-07-01 01:39:00",13.2,9.4,0.0,0.0,1012.6
"2018-07-01 01:40:00",13.1,9.4,0.0,0.0,1012.6
"2018-07-01 01:41:00",13.1,9.4,0.0,0.0,1012.6
"2018-07-01 01:42:00",13.1,9.5,0.0,0.0,1012.6
"2018-07-01 01:43:00",13.1,9.5,0.0,0.0,1012.6
"2018-07-01 01:44:00",13.1,9.5,0.0,0.0,1012.6
"2018-07-01 01:45:00",13.0,9.4,0.0,0.0,1012.6
"2018-07-01 01:46:00",13.0,9.4,0.0,0.0,1012.6
"2018-07-01 01:47:00",12.9,9.3,0.0,0.0,1012.6
"2018-07-01 01:48:00",12.9,9.3,0.0,0.0,1012.6
"2018-07-01 01:49:00",12.9,9.3,0.0,0.0,1012.6
"2018-07-01 01:50:00",12.9,9.3,0.0,0.0,1012.7
"2018-07-01 01:51:00",12.9,9.3,0.0,0.0,1012.7
"2018-07-01 01:52:00",12.9,9.3,0.0,0.0,1012.6
"2018-07-01 01:53:00",12.9,9.3,0.0,0.0,1012.6
"2018-07-01 01:54:00",12.9,9.3,0.0,0.0,1012.6
"2018-07-01 01:55:00",12.8,9.2,0.0,0.0,1012.6
"2018-07-01 01:56:00",12.8,9.4,0.0,0.0,1012.6
"2018-07-01 01:57:00",12.8,9.4,0.0,0.0,1012.6
"2018-07-01 01:58:00",12.8,9.2,0.0,0.0,1012.6
"2018-07-01 01:59:00",12.8,9.4,0.0,0.0,1012.6
"2018-07-01 02:00:00",12.7,9.3,0.0,0.0,1012.6
"2018-07-01 02:01:00",12.7,9.3,0.0,0.0,1012.6
"2018-07-01 02:02:00",12.7,9.3,0.0,0.0,1012.6
"2018-07-01 02:03:00",12.7,9.3,0.0,0.0,1012.6
"2018-07-01 02:04:00",12.7,9.3,0.0,0.0,1012.6
"2018-07-01 02:05:00",12.6,9.2,0.0,0.0,1012.5
"2018-07-01 02:06:00",12.6,9.2,0.0,0.0,1012.6
"2018-07-01 02:07:00",12.6,9.2,0.0,0.0,1012.5
"2018-07-01 02:08:00",12.6,9.2,0.0,0.0,1012.6
"2018-07-01 02:09:00",12.6,9.2,0.0,0.0,1012.6
"2018-07-01 02:10:00",12.6,9.4,0.0,0.0,1012.6
"2018-07-01 02:11:00",12.6,9.4,0.0,0.0,1012.5
"2018-07-01 02:12:00",12.6,9.4,0.0,0.0,1012.5
"2018-07-01 02:13:00",12.6,9.4,0.0,0.0,1012.5
"2018-07-01 02:14:00",12.6,9.4,0.0,0.0,1012.5
"2018-07-01 02:15:00",12.5,9.3,0.0,0.0,1012.5
"2018-07-01 02:16:00",12.5,9.3,0.0,0.0,1012.5
"2018-07-01 02:17:00",12.5,9.3,0.0,0.0,1012.5
"2018-07-01 02:18:00",12.5,9.3,0.0,0.0,1012.5
"2018-07-01 02:19:00",12.5,9.3,0.0,0.0,1012.5
"2018-07-01 02:20:00",12.4,9.2,0.0,0.0,1012.5
"2018-07-01 02:21:00",12.4,9.2,0.0,0.0,1012.5
"2018-07-01 02:22:00",12.4,9.2,0.0,0.0,1012.4
"2018-07-01 02:23:00",12.4,9.2,0.0,0.0,1012.4
"2018-07-01 02:24:00",12.4,9.2,0.0,0.0,1012.4
"2018-07-01 02:25:00",12.3,9.1,0.0,0.0,1012.4
"2018-07-01 02:26:00",12.3,9.1,0.0,0.0,1012.4
"2018-07-01 02:27:00",12.4,9.2,0.0,0.0,1012.4
"2018-07-01 02:28:00",12.4,9.2,0.0,0.0,1012.4
"2018-07-01 02:29:00",12.4,9.2,0.0,0.0,1012.4
"2018-07-01 02:30:00",12.4,9.2,0.0,0.0,1012.3
"2018-07-01 02:31:00",12.4,9.2,0.0,0.0,1012.4
"2018-07-01 02:32:00",12.3,9.1,0.0,0.0,1012.4
"2018-07-01 02:33:00",12.3,9.1,0.0,0.0,1012.4
"2018-07-01 02:34:00",12.3,9.1,0.0,0.0,1012.4
"2018-07-01 02:35:00",12.3,9.3,0.0,0.0,1012.4
"2018-07-01 02:36:00",12.3,9.3,0.0,0.0,1012.3
"2018-07-01 02:37:00",12.2,9.2,0.0,0.0,1012.3
"2018-07-01 02:38:00",12.2,9.2,0.0,0.0,1012.3
"2018-07-01 02:39:00",12.2,9.2,0.0,0.0,1012.3
"2018-07-01 02:40:00",12.2,9.2,0.0,0.0,1012.3
"2018-07-01 02:41:00",12.2,9.2,0.0,0.0,1012.3
"2018-07-01 02:42:00",12.2,9.2,0.0,0.0,1012.3
"2018-07-01 02:43:00",12.2,9.2,0.0,0.0,1012.3
"2018-07-01 02:44:00",12.2,9.2,0.0,0.0,1012.3
"2018-07-01 02:45:00",12.1,9.3,0.0,0.0,1012.2
"2018-07-01 02:46:00",12.1,9.3,0.0,0.0,1012.2
"2018-07-01 02:47:00",12.1,9.3,0.0,0.0,1012.2
"2018-07-01 02:48:00",12.1,9.3,0.0,0.0,1012.2
"2018-07-01 02:49:00",12.1,9.3,0.0,0.0,1012.2
"2018-07-01 02:50:00",12.1,9.3,0.0,0.0,1012.2
"2018-07-01 02:51:00",12.1,9.3,0.0,0.0,1012.2
"2018-07-01 02:52:00",12.1,9.3,0.0,0.0,1012.2
"2018-07-01 02:53:00",12.0,9.2,0.0,0.0,1012.2
"2018-07-01 02:54:00",12.1,9.3,0.0,0.0,1012.2
"2018-07-01 02:55:00",12.0,9.2,0.0,0.0,1012.1
"2018-07-01 02:56:00",12.0,9.2,0.0,0.0,1012.1
"2018-07-01 02:57:00",12.0,9.2,0.0,0.0,1012.1
"2018-07-01 02:58:00",12.0,9.2,0.0,0.0,1012.1
"2018-07-01 02:59:00",12.0,9.2,0.0,0.0,1012.1
"2018-07-01 03:00:00",12.0,9.2,0.0,0.0,1012.1
"2018-07-01 03:01:00",12.1,9.3,0.0,0.0,1012.1
"2018-07-01 03:02:00",12.1,9.3,0.0,0.0,1012.1
"2018-07-01 03:03:00",12.1,9.3,0.0,0.0,1012.1
"2018-07-01 03:04:00",12.1,9.3,0.0,0.0,1012.1
"2018-07-01 03:05:00",12.1,9.3,0.0,0.0,1012.1
"2018-07-01 03:06:00",12.1,9.3,0.0,0.0,1012.1
"2018-07-01 03:07:00",12.1,9.3,0.0,0.0,1012.0
"2018-07-01 03:08:00",12.1,9.3,0.0,0.0,1012.1
"2018-07-01 03:09:00",12.1,9.3,0.0,0.0,1012.1
"2018-07-01 03:10:00",12.0,9.2,0.0,0.0,1012.1
"2018-07-01 03:11:00",12.0,9.2,0.0,0.0,1012.1
"2018-07-01 03:12:00",12.0,9.2,0.0,0.0,1012.1
"2018-07-01 03:13:00",12.0,9.2,0.0,0.0,1012.1
"2018-07-01 03:14:00",12.0,9.2,0.0,0.0,1012.0
"2018-07-01 03:15:00",12.0,9.2,0.0,0.0,1012.0
"2018-07-01 03:16:00",12.0,9.2,0.0,0.0,1012.0
"2018-07-01 03:17:00",11.9,9.1,0.0,0.0,1012.0
"2018-07-01 03:18:00",11.9,9.1,0.0,0.0,1012.0
"2018-07-01 03:19:00",11.9,9.1,0.0,0.0,1012.0
"2018-07-01 03:20:00",11.9,9.1,0.0,0.0,1012.0
"2018-07-01 03:21:00",11.9,9.1,0.0,0.0,1012.0
"2018-07-01 03:22:00",12.0,9.2,0.0,0.0,1012.0
"2018-07-01 03:23:00",12.0,9.4,0.0,0.0,1012.0
"2018-07-01 03:24:00",12.0,9.4,0.0,0.0,1012.0
"2018-07-01 03:25:00",11.9,9.3,0.0,0.0,1012.0
"2018-07-01 03:26:00",11.9,9.3,0.0,0.0,1012.0
"2018-07-01 03:27:00",11.9,9.3,0.0,0.0,1012.0
"2018-07-01 03:28:00",11.9,9.3,0.0,0.0,1012.0
"2018-07-01 03:29:00",11.9,9.3,0.0,0.0,1012.0
"2018-07-01 03:30:00",12.0,9.4,0.0,0.0,1012.0
"2018-07-01 03:31:00",12.0,9.4,0.0,0.0,1012.0
"2018-07-01 03:32:00",12.0,9.4,0.0,0.0,1012.0
"2018-07-01 03:33:00",12.0,9.4,0.0,0.0,1012.0
"2018-07-01 03:34:00",11.9,9.3,0.0,0.0,1011.9
"2018-07-01 03:35:00",11.9,9.3,0.0,0.0,1012.0
"2018-07-01 03:36:00",11.9,9.3,0.0,0.0,1012.0
"2018-07-01 03:37:00",11.9,9.3,0.0,0.0,1012.0
"2018-07-01 03:38:00",11.9,9.3,0.0,0.0,1012.0
"2018-07-01 03:39:00",11.9,9.3,0.0,0.0,1012.0
"2018-07-01 03:40:00",11.9,9.3,0.0,0.0,1012.0
"2018-07-01 03:41:00",12.0,9.4,0.0,0.0,1012.0
"2018-07-01 03:42:00",12.0,9.4,0.0,0.0,1012.0
"2018-07-01 03:43:00",12.0,9.4,0.0,0.0,1012.0
"2018-07-01 03:44:00",12.0,9.4,0.0,0.0,1012.0
"2018-07-01 03:45:00",12.0,9.4,0.0,0.0,1012.0
"2018-07-01 03:46:00",12.0,9.4,0.0,0.0,1012.0
"2018-07-01 03:47:00",12.0,9.4,0.0,0.0,1012.0
"2018-07-01 03:48:00",12.0,9.4,0.0,0.0,1012.0
"2018-07-01 03:49:00",12.0,9.4,0.0,0.0,1012.0
"2018-07-01 03:50:00",12.0,9.4,0.0,0.0,1012.0
"2018-07-01 03:51:00",12.0,9.4,0.0,0.0,1012.0
"2018-07-01 03:52:00",12.0,9.4,0.0,0.0,1012.0
"2018-07-01 03:53:00",12.0,9.4,0.0,0.0,1011.9
"2018-07-01 03:54:00",12.0,9.4,0.0,0.0,1011.9
"2018-07-01 03:55:00",12.0,9.4,0.0,0.0,1011.9
"2018-07-01 03:56:00",12.1,9.5,0.0,0.0,1011.9
"2018-07-01 03:57:00",12.1,9.5,0.0,0.0,1011.9
"2018-07-01 03:58:00",12.1,9.5,0.0,0.0,1011.9
"2018-07-01 03:59:00",12.1,9.5,0.0,0.0,1011.9
"2018-07-01 04:00:00",12.1,9.5,0.0,0.0,1011.9
"2018-07-01 04:01:00",12.1,9.5,0.0,0.0,1011.9
"2018-07-01 04:02:00",12.1,9.7,0.0,0.0,1011.9
"2018-07-01 04:03:00",12.1,9.5,0.0,0.0,1011.9
"2018-07-01 04:04:00",12.0,9.4,0.0,0.0,1011.9
"2018-07-01 04:05:00",12.0,9.4,0.0,0.0,1011.9
"2018-07-01 04:06:00",12.0,9.4,0.0,0.0,1011.9
"2018-07-01 04:07:00",12.0,9.6,0.0,0.0,1011.9
"2018-07-01 04:08:00",12.0,9.6,0.0,0.0,1011.9
"2018-07-01 04:09:00",12.1,9.7,0.0,0.0,1011.8
"2018-07-01 04:10:00",12.1,9.7,0.0,0.0,1011.9
"2018-07-01 04:11:00",12.1,9.7,0.0,0.0,1011.8
"2018-07-01 04:12:00",12.1,9.7,0.0,0.0,1011.9
"2018-07-01 04:13:00",12.1,9.7,0.0,0.0,1011.8
"2018-07-01 04:14:00",12.1,9.7,0.0,0.0,1011.9
"2018-07-01 04:15:00",12.1,9.7,0.0,0.0,1011.9
"2018-07-01 04:16:00",12.1,9.7,0.0,0.0,1011.9
"2018-07-01 04:17:00",12.1,9.7,0.0,0.0,1011.9
"2018-07-01 04:18:00",12.1,9.7,0.0,0.0,1011.9
"2018-07-01 04:19:00",12.1,9.7,0.0,0.0,1011.8
"2018-07-01 04:20:00",12.0,9.6,0.0,0.0,1011.8
"2018-07-01 04:21:00",12.1,9.7,0.0,0.0,1011.8
"2018-07-01 04:22:00",12.1,9.7,0.0,0.0,1011.8
"2018-07-01 04:23:00",12.1,9.7,0.0,0.0,1011.8
"2018-07-01 04:24:00",12.1,9.7,0.0,0.0,1011.8
"2018-07-01 04:25:00",12.1,9.7,0.0,0.0,1011.8
"2018-07-01 04:26:00",12.1,9.7,0.0,0.0,1011.9
"2018-07-01 04:27:00",12.1,9.7,0.0,0.0,1011.9
"2018-07-01 04:28:00",12.2,9.8,0.0,0.0,1011.9
"2018-07-01 04:29:00",12.2,9.8,0.0,0.0,1011.9
"2018-07-01 04:30:00",12.2,9.8,0.0,0.0,1011.9
"2018-07-01 04:31:00",12.2,9.8,0.0,0.0,1011.9
"2018-07-01 04:32:00",12.2,9.8,0.0,0.0,1011.9
"2018-07-01 04:33:00",12.2,9.8,0.0,0.0,1011.9
"2018-07-01 04:34:00",12.3,9.9,0.0,0.0,1011.9
"2018-07-01 04:35:00",12.3,9.9,0.0,0.0,1012.0
"2018-07-01 04:36:00",12.3,9.9,0.0,0.0,1012.0
"2018-07-01 04:37:00",12.3,9.9,0.0,0.0,1012.0
"2018-07-01 04:38:00",12.3,9.9,0.0,0.0,1012.0
"2018-07-01 04:39:00",12.3,9.9,0.0,0.0,1012.0
"2018-07-01 04:40:00",12.3,9.9,0.0,0.0,1012.0
"2018-07-01 04:41:00",12.3,9.9,0.0,0.0,1012.0
"2018-07-01 04:42:00",12.3,9.9,0.0,0.0,1012.0
"2018-07-01 04:43:00",12.3,9.9,0.0,0.0,1012.0
"2018-07-01 04:44:00",12.3,9.9,0.0,0.0,1012.0
"2018-07-01 04:45:00",12.3,9.9,0.0,0.0,1012.0
"2018-07-01 04:46:00",12.3,9.9,0.0,0.0,1012.0
"2018-07-01 04:47:00",12.3,9.9,0.0,0.0,1012.0
"2018-07-01 04:48:00",12.3,9.9,0.0,0.0,1012.0
"2018-07-01 04:49:00",12.3,9.9,0.0,0.0,1012.0
"2018-07-01 04:50:00",12.3,9.9,0.0,0.0,1012.1
"2018-07-01 04:51:00",12.3,9.9,0.0,0.0,1012.1
"2018-07-01 04:52:00",12.3,9.9,0.0,0.0,1012.1
"2018-07-01 04:53:00",12.3,9.9,0.0,0.0,1012.1
"2018-07-01 04:54:00",12.3,9.9,0.0,0.0,1012.0
"2018-07-01 04:55:00",12.3,9.9,0.0,0.0,1012.1
"2018-07-01 04:56:00",12.4,9.9,0.0,0.0,1012.1
"2018-07-01 04:57:00",12.4,10.1,0.0,0.0,1012.1
"2018-07-01 04:58:00",12.3,9.9,0.0,0.0,1012.2
"2018-07-01 04:59:00",12.4,9.9,0.0,0.0,1012.1
"2018-07-01 05:00:00",12.3,9.9,0.0,0.0,1012.1
"2018-07-01 05:01:00",12.3,9.9,0.0,0.0,1012.1
"2018-07-01 05:02:00",12.3,9.9,0.0,0.0,1012.2
"2018-07-01 05:03:00",12.3,9.9,0.0,0.0,1012.1
"2018-07-01 05:04:00",12.4,9.9,0.0,0.0,1012.1
"2018-07-01 05:05:00",12.4,10.1,0.0,0.0,1012.1
"2018-07-01 05:06:00",12.4,10.1,0.0,0.0,1012.2
"2018-07-01 05:07:00",12.4,10.1,0.0,0.0,1012.1
"2018-07-01 05:08:00",12.4,10.1,0.0,0.0,1012.2
"2018-07-01 05:09:00",12.4,10.1,0.0,0.0,1012.2
"2018-07-01 05:10:00",12.4,10.1,0.0,0.0,1012.2
"2018-07-01 05:11:00",12.4,10.1,0.0,0.0,1012.1
"2018-07-01 05:12:00",12.4,10.1,0.0,0.0,1012.2
"2018-07-01 05:13:00",12.4,10.1,0.0,0.0,1012.1
"2018-07-01 05:14:00",12.4,10.1,0.0,0.0,1012.1
"2018-07-01 05:15:00",12.5,10.2,0.0,0.0,1012.1
"2018-07-01 05:16:00",12.5,10.2,0.0,0.0,1012.1
"2018-07-01 05:17:00",12.5,10.2,0.0,0.0,1012.1
"2018-07-01 05:18:00",12.5,10.2,0.0,0.0,1012.1
"2018-07-01 05:19:00",12.5,10.2,0.0,0.0,1012.2
"2018-07-01 05:20:00",12.5,10.2,0.0,0.0,1012.2
"2018-07-01 05:21:00",12.5,10.2,0.0,0.0,1012.1
"2018-07-01 05:22:00",12.6,10.3,0.0,0.0,1012.2
"2018-07-01 05:23:00",12.6,10.3,0.0,0.0,1012.2
"2018-07-01 05:24:00",12.6,10.3,0.0,0.0,1012.1
"2018-07-01 05:25:00",12.6,10.3,0.0,0.0,1012.2
"2018-07-01 05:26:00",12.6,10.3,0.0,0.0,1012.2
"2018-07-01 05:27:00",12.6,10.3,0.0,0.0,1012.1
"2018-07-01 05:28:00",12.6,10.3,0.0,0.0,1012.1
"2018-07-01 05:29:00",12.6,10.3,0.0,0.0,1012.2
"2018-07-01 05:30:00",12.6,10.3,0.0,0.0,1012.1
"2018-07-01 05:31:00",12.6,10.3,0.0,0.0,1012.1
"2018-07-01 05:32:00",12.6,10.3,0.0,0.0,1012.1
"2018-07-01 05:33:00",12.6,10.3,0.0,0.0,1012.1
"2018-07-01 05:34:00",12.7,10.4,0.0,0.0,1012.1
"2018-07-01 05:35:00",12.7,10.4,0.0,0.0,1012.1
"2018-07-01 05:36:00",12.7,10.4,0.0,0.0,1012.1
"2018-07-01 05:37:00",12.7,10.4,0.0,0.0,1012.2
"2018-07-01 05:38:00",12.8,10.5,0.0,0.0,1012.2
"2018-07-01 05:39:00",12.8,10.5,0.0,0.0,1012.2
"2018-07-01 05:40:00",12.8,10.5,0.0,0.0,1012.2
"2018-07-01 05:41:00",12.9,10.6,0.0,0.0,1012.2
"2018-07-01 05:42:00",12.9,10.6,0.0,0.0,1012.2
"2018-07-01 05:43:00",13.0,10.7,0.0,0.0,1012.1
"2018-07-01 05:44:00",13.1,10.8,0.0,0.0,1012.2
"2018-07-01 05:45:00",13.1,10.8,0.0,0.0,1012.2
"2018-07-01 05:46:00",13.1,10.8,0.0,0.0,1012.1
"2018-07-01 05:47:00",13.1,10.8,0.0,0.0,1012.2
"2018-07-01 05:48:00",13.2,10.9,0.0,0.0,1012.1
"2018-07-01 05:49:00",13.2,10.7,0.0,0.0,1012.1
"2018-07-01 05:50:00",13.2,10.7,0.0,0.0,1012.2
"2018-07-01 05:51:00",13.2,10.7,0.0,0.0,1012.1
"2018-07-01 05:52:00",13.3,11.0,0.0,0.0,1012.1
"2018-07-01 05:53:00",13.3,11.0,0.0,0.0,1012.1
"2018-07-01 05:54:00",13.3,11.0,0.0,0.0,1012.1
"2018-07-01 05:55:00",13.4,10.9,0.0,0.0,1012.1
"2018-07-01 05:56:00",13.4,10.9,0.0,0.0,1012.2
"2018-07-01 05:57:00",13.5,11.0,0.0,0.0,1012.2
"2018-07-01 05:58:00",13.6,11.1,0.0,0.0,1012.2
"2018-07-01 05:59:00",13.6,11.1,0.0,0.0,1012.2
"2018-07-01 06:00:00",13.7,11.2,0.0,0.0,1012.2
"2018-07-01 06:01:00",13.7,11.2,0.0,0.0,1012.2
"2018-07-01 06:02:00",13.7,11.2,0.0,0.0,1012.2
"2018-07-01 06:03:00",13.7,11.2,0.0,0.0,1012.2
"2018-07-01 06:04:00",13.8,11.3,0.0,0.0,1012.2
"2018-07-01 06:05:00",13.8,11.3,0.0,0.0,1012.2
"2018-07-01 06:06:00",13.8,11.3,0.0,0.0,1012.2
"2018-07-01 06:07:00",13.8,11.3,0.0,0.0,1012.2
"2018-07-01 06:08:00",13.8,11.3,0.0,0.0,1012.2
"2018-07-01 06:09:00",13.8,11.3,0.0,0.0,1012.1
"2018-07-01 06:10:00",13.9,11.4,0.0,0.0,1012.2
"2018-07-01 06:11:00",14.0,11.5,0.0,0.0,1012.2
"2018-07-01 06:12:00",14.1,11.6,0.0,0.0,1012.1
"2018-07-01 06:13:00",14.2,11.7,0.0,0.0,1012.2
"2018-07-01 06:14:00",14.2,11.5,0.0,0.0,1012.2
"2018-07-01 06:15:00",14.3,11.6,0.0,0.0,1012.1
"2018-07-01 06:16:00",14.3,11.6,0.0,0.0,1012.2
"2018-07-01 06:17:00",14.4,11.7,0.0,0.0,1012.2
"2018-07-01 06:18:00",14.4,11.7,0.0,0.0,1012.2
"2018-07-01 06:19:00",14.4,11.7,0.0,0.0,1012.2
"2018-07-01 06:20:00",14.5,11.6,0.0,0.0,1012.2
"2018-07-01 06:21:00",14.6,11.9,0.0,0.0,1012.3
"2018-07-01 06:22:00",14.6,11.7,0.0,0.0,1012.2
"2018-07-01 06:23:00",14.6,11.7,0.0,0.0,1012.3
"2018-07-01 06:24:00",14.7,11.8,0.0,0.0,1012.3
"2018-07-01 06:25:00",14.7,11.8,0.0,0.0,1012.3
"2018-07-01 06:26:00",14.7,11.8,0.0,0.0,1012.3
"2018-07-01 06:27:00",14.8,11.9,0.0,0.0,1012.3
"2018-07-01 06:28:00",14.8,11.9,0.0,0.0,1012.3
"2018-07-01 06:29:00",14.8,11.9,0.0,0.0,1012.3
"2018-07-01 06:30:00",14.8,11.9,0.0,0.0,1012.3
"2018-07-01 06:31:00",14.8,11.9,0.0,0.0,1012.3
"2018-07-01 06:32:00",14.8,11.9,0.0,0.0,1012.3
"2018-07-01 06:33:00",14.8,11.9,0.0,0.0,1012.3
"2018-07-01 06:34:00",14.9,12.0,0.0,0.0,1012.2
"2018-07-01 06:35:00",14.9,12.0,0.0,0.0,1012.2
"2018-07-01 06:36:00",14.9,11.9,0.0,0.0,1012.2
"2018-07-01 06:37:00",15.0,12.0,0.0,0.0,1012.2
"2018-07-01 06:38:00",15.0,12.0,0.0,0.0,1012.2
"2018-07-01 06:39:00",15.0,12.0,0.0,0.0,1012.3
"2018-07-01 06:40:00",15.1,12.0,0.0,0.0,1012.2
"2018-07-01 06:41:00",15.1,12.0,0.0,0.0,1012.2
"2018-07-01 06:42:00",15.2,12.1,0.0,0.0,1012.3
"2018-07-01 06:43:00",15.2,12.1,0.0,0.0,1012.2
"2018-07-01 06:44:00",15.3,12.2,0.0,0.0,1012.2
"2018-07-01 06:45:00",15.3,12.2,0.0,0.0,1012.2
"2018-07-01 06:46:00",15.3,12.2,0.0,0.0,1012.2
"2018-07-01 06:47:00",15.3,12.2,0.0,0.0,1012.1
"2018-07-01 06:48:00",15.4,12.3,0.0,0.0,1012.2
"2018-07-01 06:49:00",15.4,12.2,0.0,0.0,1012.1
"2018-07-01 06:50:00",15.5,12.3,0.0,0.0,1012.2
"2018-07-01 06:51:00",15.5,12.3,0.0,0.0,1012.2
"2018-07-01 06:52:00",15.6,12.4,0.0,0.0,1012.2
"2018-07-01 06:53:00",15.6,12.4,0.0,0.0,1012.2
"2018-07-01 06:54:00",15.7,12.4,0.0,0.0,1012.2
"2018-07-01 06:55:00",15.7,12.4,0.0,0.0,1012.2
"2018-07-01 06:56:00",15.7,12.4,0.0,0.0,1012.1
"2018-07-01 06:57:00",15.7,12.4,0.0,0.0,1012.1
"2018-07-01 06:58:00",15.7,12.4,0.0,0.0,1012.1
"2018-07-01 06:59:00",15.7,12.4,0.0,0.0,1012.1
"2018-07-01 07:00:00",15.7,12.4,0.0,0.5,1012.1
"2018-07-01 07:01:00",15.7,12.4,0.0,0.5,1012.1
"2018-07-01 07:02:00",15.7,12.4,0.0,0.5,1012.0
"2018-07-01 07:03:00",15.8,12.5,0.0,0.5,1012.1
"2018-07-01 07:04:00",15.8,12.5,0.0,0.5,1012.1
"2018-07-01 07:05:00",15.8,12.4,0.0,0.5,1012.0
"2018-07-01 07:06:00",15.8,12.4,0.0,0.5,1012.1
"2018-07-01 07:07:00",15.9,12.5,0.0,0.5,1012.0
"2018-07-01 07:08:00",15.9,12.5,0.0,0.5,1012.0
"2018-07-01 07:09:00",16.0,12.6,0.0,0.5,1012.1
"2018-07-01 07:10:00",16.1,12.6,0.0,0.5,1012.0
"2018-07-01 07:11:00",16.1,12.6,0.0,0.5,1012.1
"2018-07-01 07:12:00",16.2,12.7,0.0,0.6,1012.0
"2018-07-01 07:13:00",16.2,12.6,0.0,0.6,1012.0
"2018-07-01 07:14:00",16.3,12.7,0.0,0.6,1012.1
"2018-07-01 07:15:00",16.3,12.7,0.0,0.6,1012.0
"2018-07-01 07:16:00",16.3,12.7,0.0,0.6,1012.1
"2018-07-01 07:17:00",16.4,12.7,0.0,0.7,1012.1
"2018-07-01 07:18:00",16.4,12.7,0.0,0.7,1012.0
"2018-07-01 07:19:00",16.4,12.7,0.0,0.7,1012.0
"2018-07-01 07:20:00",16.5,12.8,0.0,0.7,1012.0
"2018-07-01 07:21:00",16.5,12.8,0.0,0.7,1012.1
"2018-07-01 07:22:00",16.6,12.9,0.0,0.7,1012.0
"2018-07-01 07:23:00",16.6,12.9,0.0,0.7,1012.0
"2018-07-01 07:24:00",16.7,12.8,0.0,0.7,1012.0
"2018-07-01 07:25:00",16.7,12.8,0.0,0.7,1012.0
"2018-07-01 07:26:00",16.8,12.9,0.0,0.8,1012.1
"2018-07-01 07:27:00",16.8,12.9,0.0,0.8,1012.0
"2018-07-01 07:28:00",16.8,12.7,0.0,0.8,1012.0
"2018-07-01 07:29:00",16.8,12.7,0.0,0.8,1012.1
"2018-07-01 07:30:00",16.9,12.8,0.0,0.8,1012.1
"2018-07-01 07:31:00",16.9,12.8,0.0,0.8,1012.1
"2018-07-01 07:32:00",16.9,12.8,0.0,0.9,1012.1
"2018-07-01 07:33:00",16.9,12.8,0.0,0.9,1012.1
"2018-07-01 07:34:00",16.9,12.8,0.0,0.9,1012.0
"2018-07-01 07:35:00",17.0,12.9,0.0,0.9,1012.1
"2018-07-01 07:36:00",17.1,13.0,0.0,0.9,1012.1
"2018-07-01 07:37:00",17.1,12.8,0.0,0.9,1012.1
"2018-07-01 07:38:00",17.2,12.9,0.0,0.9,1012.1
"2018-07-01 07:39:00",17.2,12.9,0.0,0.9,1012.1
"2018-07-01 07:40:00",17.3,13.0,0.0,0.9,1012.1
"2018-07-01 07:41:00",17.3,13.0,0.0,0.9,1012.1
"2018-07-01 07:42:00",17.3,13.0,0.0,0.9,1012.1
"2018-07-01 07:43:00",17.3,13.0,0.0,0.9,1012.1
"2018-07-01 07:44:00",17.4,13.1,0.0,0.9,1012.1
"2018-07-01 07:45:00",17.4,13.1,0.0,0.9,1012.1
"2018-07-01 07:46:00",17.4,12.9,0.0,1.0,1012.1
"2018-07-01 07:47:00",17.4,12.9,0.0,1.0,1012.0
"2018-07-01 07:48:00",17.4,13.1,0.0,1.0,1012.0
"2018-07-01 07:49:00",17.4,13.1,0.0,1.0,1012.0
"2018-07-01 07:50:00",17.4,13.1,0.0,1.0,1012.1
"2018-07-01 07:51:00",17.4,12.9,0.0,1.0,1012.0
"2018-07-01 07:52:00",17.5,13.0,0.0,1.0,1012.1
"2018-07-01 07:53:00",17.5,13.0,0.0,1.0,1012.1
"2018-07-01 07:54:00",17.6,13.1,0.0,1.0,1012.1
"2018-07-01 07:55:00",17.6,13.1,0.0,1.0,1012.1
"2018-07-01 07:56:00",17.7,13.2,0.0,1.0,1012.1
"2018-07-01 07:57:00",17.7,13.2,0.0,1.0,1012.1
"2018-07-01 07:58:00",17.8,13.3,0.0,1.1,1012.1
"2018-07-01 07:59:00",17.8,13.3,0.0,1.1,1012.1
"2018-07-01 08:00:00",17.9,13.2,0.0,1.1,1012.1
"2018-07-01 08:01:00",17.9,13.2,0.0,1.0,1012.2
"2018-07-01 08:02:00",17.9,13.2,0.0,1.0,1012.2
"2018-07-01 08:03:00",18.0,13.5,0.0,1.0,1012.1
"2018-07-01 08:04:00",18.0,13.3,0.0,1.1,1012.1
"2018-07-01 08:05:00",18.0,13.3,0.0,1.1,1012.1
"2018-07-01 08:06:00",18.0,13.3,0.0,1.1,1012.1
"2018-07-01 08:07:00",18.0,13.3,0.0,1.1,1012.2
"2018-07-01 08:08:00",18.0,13.3,0.0,1.1,1012.1
"2018-07-01 08:09:00",18.0,13.3,0.0,1.1,1012.1
"2018-07-01 08:10:00",18.1,13.4,0.0,1.0,1012.2
"2018-07-01 08:11:00",18.1,13.4,0.0,1.0,1012.1
"2018-07-01 08:12:00",18.2,13.5,0.0,1.1,1012.1
"2018-07-01 08:13:00",18.3,13.6,0.0,1.3,1012.1
"2018-07-01 08:14:00",18.4,13.5,0.0,1.3,1012.1
"2018-07-01 08:15:00",18.4,13.5,0.0,1.3,1012.1
"2018-07-01 08:16:00",18.4,13.5,0.0,1.2,1012.1
"2018-07-01 08:17:00",18.4,13.5,0.0,1.1,1012.0
"2018-07-01 08:18:00",18.4,13.5,0.0,1.1,1012.0
"2018-07-01 08:19:00",18.4,13.5,0.0,1.2,1012.0
"2018-07-01 08:20:00",18.4,13.5,0.0,1.2,1012.0
"2018-07-01 08:21:00",18.5,13.6,0.0,1.3,1012.0
"2018-07-01 08:22:00",18.6,13.7,0.0,1.2,1012.0
"2018-07-01 08:23:00",18.5,13.4,0.0,1.2,1012.0
"2018-07-01 08:24:00",18.5,13.4,0.0,1.2,1011.9
"2018-07-01 08:25:00",18.5,13.4,0.0,1.1,1011.9
"2018-07-01 08:26:00",18.5,13.4,0.0,1.1,1011.9
"2018-07-01 08:27:00",18.5,13.6,0.0,1.1,1012.0
"2018-07-01 08:28:00",18.6,13.5,0.0,1.1,1012.0
"2018-07-01 08:29:00",18.6,13.7,0.0,1.1,1011.9
"2018-07-01 08:30:00",18.7,13.8,0.0,1.1,1011.9
"2018-07-01 08:31:00",18.7,13.8,0.0,1.1,1011.9
"2018-07-01 08:32:00",18.8,13.9,0.0,1.2,1012.0
"2018-07-01 08:33:00",18.9,13.7,0.0,1.1,1012.0
"2018-07-01 08:34:00",18.9,13.7,0.0,1.1,1012.0
"2018-07-01 08:35:00",18.9,13.7,0.0,1.1,1012.0